FW5236 Weather Reports


Display with metric or nautical units.
time (UTC)temp
F
wind
direction
speed
MPH
gust
MPH
rain 1hr
in
rain 24hr
in
rain mn
in
humidity
%
barometer
mb
20260507221528 73 49 3.0 9.0 0.00 0.00 0.00 27 1017.7
20260507211541 73 48 2.0 6.0 0.00 0.00 0.00 31 1018.3
20260507210031 72 46 2.0 7.0 0.00 0.00 0.00 32 1018.5
20260507204607 71 52 2.0 6.0 0.00 0.00 0.00 32 1018.6
20260507203028 70 42 2.0 6.0 0.00 0.00 0.00 33 1018.7
20260507201532 69 49 2.0 6.0 0.00 0.00 0.00 34 1018.7
20260507200030 69 48 3.0 8.0 0.00 0.00 0.00 35 1018.8
20260507194528 70 55 2.0 7.0 0.00 0.00 0.00 36 1019.1
20260507193034 69 66 1.0 4.0 0.00 0.00 0.00 38 1019.5
20260507191530 67 47 2.0 7.0 0.00 0.00 0.00 40 1019.4
20260507190033 66 43 2.0 5.0 0.00 0.00 0.00 43 1019.4
20260507183040 66 50 2.0 6.0 0.00 0.00 0.00 46 1019.8
20260507181533 65 42 1.0 5.0 0.00 0.00 0.00 47 1020.0
20260507180030 64 40 2.0 6.0 0.00 0.00 0.00 49 1020.0
20260507174603 63 42 1.0 6.0 0.00 0.00 0.00 51 1020.3
20260507173028 62 42 2.0 8.0 0.00 0.00 0.00 54 1020.2
20260507171535 61 47 2.0 5.0 0.00 0.00 0.00 56 1020.2
20260507170033 61 57 2.0 5.0 0.00 0.00 0.00 57 1020.4
20260507163033 60 51 2.0 7.0 0.00 0.00 0.00 62 1020.5
20260507161531 59 30 2.0 6.0 0.00 0.00 0.00 65 1020.5
20260507154531 57 20 1.0 6.0 0.00 0.00 0.00 70 1020.8
20260507153031 55 8 1.0 5.0 0.00 0.00 0.00 72 1021.1
20260507151532 54 8 1.0 4.0 0.00 0.00 0.00 74 1021.1
20260507144532 52 14 0.0 4.0 0.00 0.00 0.00 80 1021.0
20260507143031 51 357 1.0 7.0 0.00 0.00 0.00 79 1020.8
20260507141530 52 1 2.0 8.0 0.00 0.00 0.00 79 1020.7
20260507140031 51 43 1.0 5.0 0.00 0.00 0.00 80 1020.5
20260507134532 50 43 2.0 5.0 0.00 0.00 0.00 82 1020.5
20260507133103 49 55 2.0 5.0 0.00 0.00 0.00 83 1020.7
20260507131530 49 67 0.0 2.0 0.00 0.00 0.00 83 1020.8
20260507130030 49 67 0.0 2.0 0.00 0.00 0.00 83 1020.7
20260507124530 49 64 0.0 4.0 0.00 0.00 0.00 83 1020.8
20260507123145 49 69 0.0 3.0 0.00 0.00 0.00 84 1020.7
20260507121531 50 43 0.0 3.0 0.00 0.00 0.00 84 1020.6
20260507120029 49 71 0.0 3.0 0.00 0.00 0.00 85 1020.5
20260507114535 50 84 0.0 3.0 0.00 0.00 0.00 85 1020.4
20260507113031 50 73 1.0 3.0 0.00 0.00 0.00 85 1020.2
20260507111531 50 75 1.0 3.0 0.00 0.00 0.00 83 1020.2
20260507110031 51 90 0.0 2.0 0.00 0.00 0.00 82 1020.2
20260507104530 51 74 0.0 3.0 0.00 0.00 0.00 81 1020.0
20260507103031 52 47 0.0 5.0 0.00 0.00 0.00 80 1020.0
20260507101531 52 13 0.0 5.0 0.00 0.00 0.00 79 1019.9
20260507100039 53 350 0.0 4.0 0.00 0.00 0.00 79 1019.9
20260507093031 53 30 0.0 3.0 0.00 0.00 0.00 80 1019.8
20260507091526 53 71 0.0 3.0 0.00 0.00 0.00 81 1019.8
20260507083029 54 22 0.0 4.0 0.00 0.00 0.00 79 1019.8
20260507081531 55 43 1.0 4.0 0.00 0.00 0.00 78 1019.8
20260507073032 54 35 1.0 5.0 0.00 0.00 0.00 80 1020.0
20260507071531 55 30 0.0 2.0 0.00 0.00 0.00 78 1020.0
20260507070029 56 35 0.0 2.0 0.00 0.00 0.00 77 1020.0
20260507064532 56 12 0.0 4.0 0.00 0.00 0.00 76 1020.1
20260507063031 57 28 0.0 4.0 0.00 0.00 0.00 76 1020.1
20260507061529 57 29 1.0 6.0 0.00 0.00 0.00 76 1020.2
20260507060030 57 20 1.0 5.0 0.00 0.00 0.00 76 1020.3
20260507053026 55 44 0.0 3.0 0.00 0.00 0.00 75 1020.6
20260507051529 56 4 0.0 1.0 0.00 0.00 0.00 72 1020.6
20260507043030 62 2 1.0 6.0 0.00 0.00 0.00 55 1020.3
20260507041528 62 1 2.0 7.0 0.00 0.00 0.00 55 1020.2
20260507040035 62 4 1.0 5.0 0.00 0.00 0.00 54 1020.2
20260507034531 62 23 1.0 5.0 0.00 0.00 0.00 56 1020.0
20260507033030 62 70 0.0 4.0 0.00 0.00 0.00 57 1019.9
20260507031531 63 54 1.0 5.0 0.00 0.00 0.00 57 1019.8
20260507030034 64 76 0.0 3.0 0.00 0.00 0.00 55 1019.8
20260507024530 64 77 1.0 4.0 0.00 0.00 0.00 54 1019.8
20260507023029 63 76 0.0 3.0 0.00 0.00 0.00 55 1019.7
20260507021533 64 139 0.0 4.0 0.00 0.00 0.00 55 1019.7
20260507020031 65 93 0.0 4.0 0.00 0.00 0.00 53 1019.7
20260507014528 65 81 0.0 3.0 0.00 0.00 0.00 52 1019.6
20260507011530 67 44 0.0 4.0 0.00 0.00 0.00 48 1019.5
20260507010030 68 38 1.0 5.0 0.00 0.00 0.00 46 1019.3
20260507004530 68 40 1.0 7.0 0.00 0.00 0.00 46 1019.2
20260507003105 69 33 0.0 4.0 0.00 0.00 0.00 45 1019.1
20260507001605 69 48 0.0 5.0 0.00 0.00 0.00 44 1019.1
20260507000031 70 43 1.0 5.0 0.00 0.00 0.00 43 1019.0
20260506234531 72 45 2.0 7.0 0.00 0.00 0.00 42 1018.8
20260506233029 72 42 3.0 11.0 0.00 0.00 0.00 42 1018.6
20260506231531 73 31 4.0 10.0 0.00 0.00 0.00 42 1018.5
20260506230029 71 25 5.0 14.0 0.00 0.00 0.00 43 1018.5